FW8600 Weather Reports


time (UTC)temp
C
wind
direction
speed
KPH
gust
KPH
rain 1hr
cm
rain 24hr
cm
rain mn
cm
humidity
%
barometer
mb
20260505064531 9 0 0.0 1.6 0.00 0.00 0.00 83 1015.1
20260505063032 9 0 0.0 1.6 0.00 0.00 0.00 83 1015.3
20260505061556 9 0 0.0 0.0 0.00 0.00 0.00 83 1015.4
20260505060032 10 0 0.0 0.0 0.00 0.00 0.00 83 1015.5
20260505054530 10 73 0.0 0.0 0.00 0.00 0.00 83 1015.5
20260505053039 10 0 0.0 0.0 0.00 0.00 0.00 80 1015.4
20260505051553 10 0 0.0 1.6 0.00 0.00 0.00 80 1015.4
20260505041533 12 0 0.0 0.0 0.00 0.00 0.00 72 1015.4
20260505040033 13 0 0.0 1.6 0.00 0.00 0.00 70 1015.3
20260505034531 13 0 0.0 1.6 0.00 0.00 0.00 67 1015.4
20260505033030 13 0 0.0 1.6 0.00 0.00 0.00 68 1015.6
20260505031532 14 0 0.0 0.0 0.00 0.00 0.00 64 1015.7
20260505030031 15 0 0.0 1.6 0.00 0.00 0.00 62 1015.8
20260505024532 15 0 0.0 1.6 0.00 0.00 0.00 61 1015.8
20260505023030 15 0 0.0 0.0 0.00 0.00 0.00 59 1015.8
20260505021530 16 0 0.0 1.6 0.00 0.00 0.00 57 1015.6
20260505020032 17 0 0.0 3.2 0.00 0.00 0.00 53 1015.5
20260505014532 18 64 1.6 6.4 0.00 0.00 0.00 48 1015.3
20260505013031 19 0 0.0 12.9 0.00 0.00 0.00 47 1015.1
20260505011532 19 51 4.8 14.5 0.00 0.00 0.00 46 1015.0
20260505010030 20 67 3.2 17.7 0.00 0.00 0.00 46 1015.0
20260505004530 19 52 4.8 14.5 0.00 0.00 0.00 47 1014.6
20260505003031 18 0 0.0 6.4 0.00 0.00 0.00 47 1014.4
20260505001532 19 62 0.0 4.8 0.00 0.00 0.00 47 1014.4
20260505000030 20 37 0.0 1.6 0.00 0.00 0.00 44 1014.4
20260504234534 20 0 0.0 4.8 0.00 0.00 0.00 44 1014.3
20260504233033 20 56 1.6 6.4 0.00 0.00 0.00 42 1014.2
20260504231530 21 0 0.0 6.4 0.00 0.00 0.00 41 1014.0
20260504230034 21 32 3.2 11.3 0.00 0.00 0.00 39 1014.1
20260504224529 22 41 11.3 17.7 0.00 0.00 0.00 36 1014.1
20260504223029 23 43 6.4 14.5 0.00 0.00 0.00 35 1013.9
20260504221531 22 307 1.6 20.9 0.00 0.00 0.00 37 1014.0
20260504220034 23 57 9.7 19.3 0.00 0.00 0.00 34 1014.0
20260504214530 23 55 14.5 33.8 0.00 0.00 0.00 35 1014.0
20260504213032 23 326 11.3 25.7 0.00 0.00 0.00 36 1014.0
20260504211533 23 60 8.0 32.2 0.00 0.00 0.00 36 1013.9
20260504210035 23 80 8.0 30.6 0.00 0.00 0.00 36 1013.9
20260504204533 23 56 9.7 24.1 0.00 0.00 0.00 35 1014.0
20260504203049 23 62 12.9 29.0 0.00 0.00 0.00 36 1014.2
20260504201532 23 32 12.9 25.7 0.00 0.00 0.00 36 1014.2
20260504200032 23 27 9.7 22.5 0.00 0.00 0.00 35 1014.3
20260504194535 24 328 8.0 24.1 0.00 0.00 0.00 36 1014.5
20260504193034 24 73 6.4 24.1 0.00 0.00 0.00 39 1014.7
20260504191532 23 61 6.4 25.7 0.00 0.00 0.00 38 1014.8
20260504190030 23 281 8.0 17.7 0.00 0.00 0.00 39 1015.1
20260504184534 23 316 6.4 22.5 0.00 0.00 0.00 39 1015.3
20260504183035 22 307 8.0 16.1 0.00 0.00 0.00 40 1015.5
20260504181535 22 321 12.9 22.5 0.00 0.00 0.00 39 1015.7
20260504180032 22 288 9.7 17.7 0.00 0.00 0.00 42 1015.8
20260504174532 22 348 9.7 16.1 0.00 0.00 0.00 41 1015.9
20260504173030 21 307 8.0 16.1 0.00 0.00 0.00 43 1016.0
20260504171532 21 183 4.8 14.5 0.00 0.00 0.00 40 1016.2
20260504081534 4 0 0.0 0.0 0.00 0.00 0.00 93 1017.3